[[{"header":{"parameterUnit":"m.s-1","parameterCategory":1,"la1":30.2991,"la2":30.254,"lo1":-89.0895,"lo2":-89.0444,"dy":0.0017,"dx":0.0017,"nx":28,"ny":28,"refTime":"2025-05-15T21:00:00:Z","depth":0,"parameterNumber":2,"parameterNumberName":"U-component_of_WINDS"},"data":[0,0,0,0,0,0,0,0,0,0,0,0,0,0,0,0,0,0,0,0,0,0,0,0,0,0,0,0,0,0,0,0,0,0,0,0,0,0,0,0,0,0,0,0,0,0,0,0,0,0,0,0,0,0,0,0,0,0,-1.4933,-1.4932,0,-1.4842,-1.4841,-1.484,-1.4759,-1.4758,-1.4757,-1.4757,-1.4662,-1.4661,-1.4659,0,0,0,0,0,0,0,0,0,0,0,0,0,-1.5036,-1.5035,-1.4933,-1.4932,-1.4931,-1.4842,-1.4841,-1.484,-1.476,-1.4758,-1.4757,-1.4756,-1.4663,-1.4661,-1.4659,0,0,0,0,0,0,0,0,0,0,0,0,0,-1.4973,-1.5034,-1.4933,-1.488,-1.4875,-1.4843,-1.4841,-1.4839,-1.476,-1.4758,-1.4757,-1.4756,-1.4664,-1.4661,-1.4659,-1.4672,0,0,-1.4651,-1.465,0,0,0,0,0,0,0,0,-1.4977,-1.4969,-1.4889,-1.4884,-1.4877,-1.4811,-1.4843,-1.4783,-1.476,-1.4803,-1.4757,-1.4755,-1.4713,-1.4706,-1.4692,-1.4667,-1.4663,-1.4651,-1.465,-1.4649,-1.4648,0,0,0,0,0,0,0,-1.4981,-1.4973,-1.4897,-1.4888,-1.4881,-1.486,-1.485,-1.4831,-1.4767,-1.4799,-1.4793,-1.4784,-1.4709,-1.4695,-1.4689,-1.4662,-1.4651,-1.4649,-1.4647,-1.4647,-1.464,-1.4641,0,0,0,0,0,0,-1.4994,-1.4977,-1.49,-1.4894,-1.4925,-1.486,-1.4848,-1.4834,-1.4767,-1.4756,-1.4785,-1.478,-1.47,-1.4692,-1.4686,-1.4694,-1.4649,-1.4646,-1.4645,-1.4639,-1.464,-1.4642,0,0,0,0,0,0,-1.4996,-1.4988,-1.4904,-1.4934,-1.4922,-1.4859,-1.4844,-1.4832,-1.4818,-1.4756,-1.4744,-1.4782,-1.4698,-1.4689,-1.4675,-1.469,-1.4645,-1.4643,-1.4637,-1.4639,-1.4641,-1.4712,0,0,0,0,0,0,-1.5,-1.4989,-1.4994,-1.4935,-1.492,-1.4895,-1.4845,-1.4832,-1.4814,-1.4807,-1.475,-1.4739,-1.4696,-1.4679,-1.4673,-1.4685,-1.4641,-1.4636,-1.4638,-1.4641,-1.4708,-1.4717,-1.4724,0,0,0,0,0,-1.5004,-1.5018,-1.4995,-1.4986,-1.4925,-1.4897,-1.4888,-1.4839,-1.4815,-1.4819,-1.4779,-1.4741,-1.469,-1.4679,-1.4671,-1.4683,-1.4635,-1.4638,-1.464,-1.4705,-1.4715,-1.4723,0,0,0,0,0,0,-1.5081,-1.5009,-1.4982,-1.4978,-1.4944,-1.4883,-1.4886,-1.4851,-1.4823,-1.4817,-1.4757,-1.4745,-1.4737,-1.4709,-1.4698,-1.469,-1.4657,-1.4658,-1.4709,-1.4718,-1.4725,-1.4731,-1.4639,0,0,0,0,0,-1.5097,-1.508,-1.5019,-1.5021,-1.5005,-1.4949,-1.4935,-1.49,-1.4861,-1.4847,-1.4806,-1.477,-1.4745,-1.473,-1.4705,-1.4705,-1.469,-1.4709,-1.4717,-1.4723,-1.4724,-1.472,-1.4727,-1.4652,-1.4651,-1.4651,0,0,-1.5131,-1.509,-1.5083,-1.5035,-1.5005,-1.4987,-1.4937,-1.4922,-1.4908,-1.4844,-1.4827,-1.4797,-1.4753,-1.4745,-1.474,-1.4721,-1.4742,-1.4727,-1.4733,-1.473,-1.4723,-1.4731,-1.4737,-1.4653,-1.4653,-1.4653,0,0,-1.5183,-1.5152,-1.5149,-1.5119,-1.5073,-1.5035,-1.5035,-1.4978,-1.4955,-1.4938,-1.4889,-1.4872,-1.4832,-1.4801,-1.4781,-1.4821,-1.4784,-1.4814,-1.4853,-1.4849,-1.4855,-1.486,-1.4871,-1.4877,-1.4816,-1.4817,-1.4817,0,-1.5231,-1.5203,-1.5152,-1.5138,-1.5118,-1.5059,-1.5055,-1.5029,-1.4977,-1.4964,-1.4944,-1.4891,-1.4857,-1.4841,-1.485,-1.4837,-1.4832,-1.4819,-1.4858,-1.4863,-1.4866,-1.4877,-1.4882,-1.482,-1.482,-1.4819,-1.4819,0,-1.5263,-1.5245,-1.5248,-1.5198,-1.5178,-1.517,-1.5116,-1.5102,-1.5069,-1.5033,-1.5015,-1.4973,-1.4936,-1.4931,-1.4898,-1.4909,-1.4898,-1.487,-1.4834,-1.4878,-1.4887,-1.4891,-1.4826,-1.4824,-1.4823,-1.4822,0,0,-1.536,-1.5281,-1.5283,-1.5259,-1.5204,-1.5188,-1.5177,-1.5141,-1.5129,-1.5096,-1.5083,-1.505,-1.5022,-1.4999,-1.4963,-1.496,-1.4991,-1.4931,-1.4929,-1.4941,-1.4997,-1.5017,-1.5022,-1.4967,-1.4968,-1.4968,-1.5,0,-1.5401,-1.5376,-1.5328,-1.5318,-1.5299,-1.5244,-1.5233,-1.5198,-1.5164,-1.5143,-1.5105,-1.5082,-1.5049,-1.5034,-1.5029,-1.4989,-1.5001,-1.4986,-1.4953,-1.4952,-1.4963,-1.5027,-1.5049,-1.508,-1.5003,-1.5003,-1.5004,0,-1.5445,-1.5414,-1.5402,-1.5346,-1.5336,-1.5327,-1.5289,-1.5271,-1.5229,-1.5204,-1.5178,-1.5138,-1.5122,-1.5091,-1.5067,-1.5057,-1.5041,-1.502,-1.5019,-1.5012,-1.4979,-1.5019,-1.5089,-1.5093,-1.5009,-1.5009,-1.5008,0,-1.5513,-1.5469,-1.5455,-1.5436,-1.5372,-1.5366,-1.5339,-1.5296,-1.5277,-1.5244,-1.5231,-1.5197,-1.5178,-1.5153,-1.5104,-1.5087,-1.5084,-1.505,-1.5061,-1.5063,-1.5061,-1.5061,-1.5127,-1.5056,-1.5056,-1.5056,-1.5056,0,-1.5562,-1.5556,-1.5484,-1.5475,-1.5467,-1.5412,-1.5405,-1.5373,-1.5335,-1.5318,-1.5269,-1.5254,-1.5192,-1.517,-1.5133,-1.5116,-1.5109,-1.5087,-1.5077,-1.509,-1.5092,-1.5076,-1.5072,-1.5057,-1.5057,-1.5056,-1.5056,0,-1.5636,-1.5588,-1.5569,-1.5509,-1.5493,-1.5489,-1.5438,-1.5427,-1.539,-1.5369,-1.5361,-1.5304,-1.5275,-1.5225,-1.5182,-1.5157,-1.5147,-1.5131,-1.5161,-1.5154,-1.5167,-1.5165,-1.5222,-1.5226,-1.5156,-1.5157,-1.5157,0,-1.5669,-1.5663,-1.5602,-1.5587,-1.5562,-1.5539,-1.5519,-1.5465,-1.5446,-1.5397,-1.5392,-1.5359,-1.533,-1.5286,-1.524,-1.5207,-1.5188,-1.521,-1.5182,-1.5195,-1.5184,-1.5184,-1.5182,-1.5216,-1.5217,-1.5218,-1.5218,0,-1.5732,-1.5708,-1.5681,-1.5645,-1.5623,-1.5592,-1.5559,-1.555,-1.5489,-1.547,-1.5439,-1.5417,-1.5372,-1.534,-1.53,-1.5271,-1.5234,-1.5228,-1.5228,-1.524,-1.5256,-1.5245,-1.5175,-1.5226,-1.5225,-1.5225,-1.5224,-1.5224,-1.5784,-1.5775,-1.573,-1.5701,-1.5671,-1.5641,-1.5627,-1.5588,-1.5562,-1.5521,-1.5492,-1.5463,-1.542,-1.5362,-1.5335,-1.5311,-1.5294,-1.5296,-1.5295,-1.5296,-1.53,-1.5263,-1.5304,-1.5304,-1.5304,-1.5303,-1.5303,0,-1.5842,-1.581,-1.5784,-1.5739,-1.5716,-1.5684,-1.5645,-1.5628,-1.5603,-1.5566,-1.5538,-1.5503,-1.5471,-1.5422,-1.5386,-1.5376,-1.5358,-1.5368,-1.5367,-1.536,-1.5318,-1.532,-1.5383,-1.5383,-1.5383,-1.5383,-1.5383,-1.5383,-1.5869,-1.5851,-1.5822,-1.5788,-1.5756,-1.5727,-1.5708,-1.5679,-1.5649,-1.5611,-1.5584,-1.5553,-1.5511,-1.5471,-1.544,-1.5426,-1.5414,-1.5429,-1.541,-1.5371,-1.5364,-1.5356,-1.5358,-1.5428,-1.5428,-1.5453,-1.5454,-1.5454]},{"header":{"parameterUnit":"m.s-1","parameterCategory":1,"la1":30.2991,"la2":30.254,"lo1":-89.0895,"lo2":-89.0444,"dy":0.0017,"dx":0.0017,"nx":28,"ny":28,"refTime":"2025-05-15T21:00:00:Z","depth":0,"parameterNumber":3,"parameterNumberName":"V-component_of_WINDS"},"data":[0,0,0,0,0,0,0,0,0,0,0,0,0,0,0,0,0,0,0,0,0,0,0,0,0,0,0,0,0,0,0,0,0,0,0,0,0,0,0,0,0,0,0,0,0,0,0,0,0,0,0,0,0,0,0,0,0,0,5.4399,5.4399,0,5.4373,5.4373,5.4372,5.4353,5.4353,5.4353,5.4352,5.4322,5.4321,5.4321,0,0,0,0,0,0,0,0,0,0,0,0,0,5.4431,5.443,5.4399,5.4399,5.4399,5.4373,5.4373,5.4372,5.4353,5.4353,5.4353,5.4352,5.4322,5.4321,5.432,0,0,0,0,0,0,0,0,0,0,0,0,0,5.4412,5.443,5.4399,5.4386,5.4385,5.4373,5.4373,5.4372,5.4353,5.4353,5.4352,5.4352,5.4322,5.4321,5.432,5.4319,0,0,5.4317,5.4317,0,0,0,0,0,0,0,0,5.4413,5.4411,5.4388,5.4387,5.4385,5.4366,5.4373,5.4354,5.4353,5.4365,5.4352,5.4352,5.4337,5.4334,5.433,5.4318,5.4316,5.4317,5.4317,5.4316,5.4316,0,0,0,0,0,0,0,5.4414,5.4412,5.4389,5.4388,5.4386,5.4381,5.4378,5.4369,5.4352,5.4364,5.4362,5.436,5.4336,5.4331,5.4329,5.4316,5.4317,5.4316,5.4316,5.4315,5.4303,5.4303,0,0,0,0,0,0,5.4418,5.4413,5.439,5.4388,5.4399,5.438,5.4377,5.4372,5.4352,5.4349,5.436,5.4359,5.4333,5.433,5.4328,5.4326,5.4316,5.4315,5.4315,5.4303,5.4303,5.4303,0,0,0,0,0,0,5.4419,5.4416,5.4391,5.44,5.4397,5.438,5.4375,5.4372,5.4367,5.4349,5.4346,5.4358,5.4332,5.4329,5.4322,5.4325,5.4315,5.4314,5.4302,5.4303,5.4303,5.4322,0,0,0,0,0,0,5.442,5.4417,5.4416,5.44,5.4396,5.4386,5.4375,5.4372,5.4366,5.4364,5.4347,5.4344,5.4332,5.4324,5.4321,5.4323,5.4313,5.4302,5.4303,5.4303,5.4321,5.4323,5.4325,0,0,0,0,0,5.4421,5.4422,5.4417,5.4414,5.4396,5.4386,5.4384,5.4371,5.4366,5.4366,5.4355,5.4344,5.4325,5.4323,5.432,5.4322,5.4302,5.4302,5.4303,5.432,5.4323,5.4325,0,0,0,0,0,0,5.4437,5.4419,5.4413,5.4409,5.44,5.4383,5.4382,5.4374,5.4364,5.4363,5.4347,5.4343,5.4338,5.4329,5.4327,5.432,5.4312,5.4312,5.4326,5.4329,5.433,5.4333,5.4312,0,0,0,0,0,5.444,5.4435,5.4419,5.4417,5.4413,5.4398,5.4394,5.4385,5.4374,5.4369,5.4358,5.4347,5.4338,5.4333,5.4324,5.432,5.4316,5.432,5.4322,5.4323,5.4323,5.4322,5.4324,5.4305,5.4305,5.4305,0,0,5.4446,5.4436,5.4433,5.442,5.4411,5.4406,5.4395,5.4389,5.4385,5.4368,5.4361,5.4352,5.4339,5.4334,5.4331,5.4326,5.4328,5.4324,5.4325,5.4325,5.4323,5.4325,5.4326,5.4306,5.4306,5.4306,0,0,5.4454,5.4446,5.4443,5.4436,5.4424,5.4415,5.4415,5.44,5.4394,5.4387,5.4375,5.4369,5.4355,5.4346,5.434,5.4348,5.4338,5.4345,5.4354,5.4353,5.4355,5.4356,5.436,5.4361,5.4345,5.4345,5.4345,0,5.4463,5.4455,5.4443,5.4439,5.4434,5.442,5.4418,5.4411,5.4396,5.4393,5.4388,5.4371,5.4361,5.4354,5.4356,5.4351,5.4351,5.4347,5.4356,5.4357,5.4358,5.4361,5.4362,5.4346,5.4346,5.4346,5.4346,0,5.4466,5.4461,5.4461,5.4449,5.4444,5.444,5.4428,5.4424,5.4416,5.4407,5.4401,5.4389,5.4378,5.4376,5.4367,5.4369,5.4366,5.4359,5.435,5.4361,5.4364,5.4365,5.4348,5.4347,5.4347,5.4347,0,0,5.4482,5.4466,5.4466,5.4461,5.4448,5.4444,5.444,5.4431,5.4428,5.4419,5.4416,5.4405,5.4399,5.4392,5.4382,5.4381,5.439,5.4374,5.4374,5.4378,5.4392,5.4398,5.4399,5.4383,5.4384,5.4384,5.4393,0,5.4489,5.4483,5.4473,5.447,5.4466,5.4454,5.4451,5.4442,5.4434,5.4429,5.442,5.4413,5.4405,5.4401,5.4399,5.4389,5.4392,5.4388,5.438,5.438,5.4385,5.4401,5.4407,5.4416,5.4394,5.4394,5.4394,0,5.4496,5.4489,5.4486,5.4476,5.4473,5.4471,5.4463,5.4458,5.4448,5.4443,5.4436,5.4427,5.4422,5.4415,5.4409,5.4406,5.4402,5.4397,5.4397,5.4396,5.4388,5.4401,5.4418,5.442,5.4396,5.4396,5.4395,0,5.4509,5.4499,5.4497,5.4493,5.448,5.4479,5.4473,5.4463,5.4459,5.4452,5.4449,5.4441,5.4436,5.443,5.4419,5.4414,5.4414,5.4405,5.441,5.441,5.441,5.441,5.4428,5.4407,5.4407,5.4407,5.4407,0,5.4518,5.4516,5.4503,5.4501,5.45,5.4489,5.4487,5.448,5.4472,5.4469,5.4458,5.4455,5.444,5.4435,5.4426,5.4423,5.4421,5.4416,5.4414,5.4417,5.4418,5.4415,5.4414,5.4407,5.4407,5.4407,5.4407,0,5.4532,5.4523,5.4519,5.4508,5.4505,5.4505,5.4495,5.4493,5.4485,5.4482,5.448,5.4467,5.4462,5.445,5.444,5.4434,5.4433,5.4429,5.4437,5.4436,5.4441,5.4441,5.4458,5.446,5.4437,5.4437,5.4437,0,5.4538,5.4537,5.4527,5.4525,5.452,5.4516,5.4513,5.4502,5.4498,5.4489,5.4488,5.4482,5.4476,5.4467,5.4457,5.445,5.4446,5.4452,5.4444,5.4449,5.4447,5.4447,5.4447,5.4454,5.4454,5.4454,5.4454,0,5.455,5.4547,5.4542,5.4537,5.4534,5.4529,5.4523,5.4522,5.4509,5.4506,5.4501,5.4497,5.4489,5.4483,5.4475,5.4468,5.4459,5.4457,5.4458,5.4462,5.4467,5.4465,5.4443,5.4457,5.4456,5.4456,5.4456,5.4456,5.4561,5.4561,5.4554,5.455,5.4545,5.4541,5.4539,5.4532,5.4528,5.4521,5.4515,5.4511,5.4502,5.4491,5.4485,5.4482,5.4477,5.4478,5.4478,5.4479,5.4481,5.4468,5.448,5.448,5.448,5.448,5.448,0,5.4574,5.4569,5.4566,5.456,5.4557,5.4551,5.4545,5.4542,5.4539,5.4533,5.4529,5.4524,5.4518,5.4509,5.4502,5.4502,5.4498,5.45,5.45,5.4499,5.4485,5.4485,5.4504,5.4504,5.4504,5.4504,5.4504,5.4504,5.458,5.4579,5.4575,5.4572,5.4567,5.4564,5.4561,5.4557,5.4553,5.4548,5.4544,5.4539,5.4531,5.4525,5.452,5.4517,5.4516,5.452,5.4516,5.4502,5.45,5.4498,5.4498,5.452,5.452,5.4531,5.4531,5.4531]}]]